Lapse_Rate
4.9 4.8 5.8 6.2 6.4 6.7 7.0 7.0 6.8 6.9 7.2 7.6 7.6 7.4 6.8 6.8 6.1 5.5 4.9 4.3 4.0 3.6 4.2 4.5 3.9 5.0 5.4 6.5 7.4 7.5 7.5 7.1 7.0 6.8 7.1 7.3 6.9 6.9
6.3 5.6 5.8 6.5 6.5 6.4 6.7 7.1 7.3 7.3 6.8 7.6 8.0 7.7 7.0 6.8 6.0 5.2 5.8 4.5 4.5 4.8 4.3 4.0 3.8 4.4 4.9 5.4 6.3 6.8 6.8 7.1 7.1 7.4 7.2 7.5 6.8 6.0
6.4 6.4 6.6 6.7 6.9 6.8 6.5 6.5 6.5 7.4 7.3 7.6 8.2 8.1 7.2 6.8 7.0 6.2 5.0 5.1 5.7 4.9 5.0 5.0 4.6 4.1 4.5 4.8 5.1 5.9 6.3 6.8 7.2 7.6 7.7 6.8 7.1 6.4
7.4 7.4 7.1 7.9 6.8 6.5 6.1 6.0 6.6 6.5 6.8 6.9 7.6 7.7 7.6 7.5 7.3 6.9 6.8 6.5 5.7 5.5 5.6 5.6 5.5 4.7 5.1 4.8 5.1 5.1 5.6 5.9 6.6 7.1 6.8 6.5 6.5 5.8
8.0 7.8 7.5 7.2 6.8 7.0 6.1 6.0 7.1 7.7 6.8 7.5 7.5 7.4 7.5 7.9 7.3 7.2 6.9 6.0 5.8 5.1 5.6 5.6 5.5 5.6 5.3 5.1 5.3 4.9 5.1 5.2 5.7 5.5 5.1 5.7 5.3 5.4
8.0 7.8 7.7 8.0 8.1 7.6 7.1 7.8 6.8 6.1 6.9 8.0 7.5 7.0 7.2 7.3 7.5 7.1 6.7 6.3 5.5 5.1 4.6 5.0 5.6 5.7 5.1 4.9 4.5 4.6 4.7 4.6 4.4 3.9 3.5 3.2 4.3 4.6
7.3 7.3 7.8 8.1 8.6 8.9 8.8 7.6 7.3 7.5 7.7 8.2 7.9 8.1 8.1 7.8 7.4 7.3 7.1 7.4 7.4 5.9 5.5 5.8 3.9 3.6 4.1 4.6 4.3 4.5 4.5 4.4 3.9 3.6 3.4 3.0 3.4 3.0
6.5 6.5 6.9 7.5 8.2 9.1 9.1 9.1 8.7 7.8 7.9 8.0 7.9 7.8 7.8 7.8 7.7 7.5 7.6 7.2 7.1 6.7 5.8 5.5 4.9 3.3 3.7 3.4 3.8 4.7 3.2 3.8 3.5 3.4 3.2 3.3 4.4 4.7
7.8 7.7 7.5 8.5 8.4 8.2 8.7 9.1 8.9 9.1 8.9 8.3 7.9 8.1 7.7 7.9 7.7 7.5 7.3 7.1 6.6 7.2 4.9 5.7 3.6 4.2 4.1 2.4 3.9 4.5 4.2 3.4 3.7 3.7 3.6 4.0 4.3 5.5
8.4 8.1 8.1 8.2 8.4 8.7 8.4 8.2 8.0 8.2 8.4 8.6 8.4 8.0 7.9 7.8 7.4 7.3 7.0 6.8 6.6 6.3 5.7 6.1 4.6 3.4 0.7 0.9 4.0 4.7 4.3 4.3 4.9 5.1 5.3 5.4 6.4 6.3
8.3 8.4 8.4 8.5 9.1 9.3 8.4 8.0 8.3 8.4 9.1 9.0 8.8 8.5 8.7 8.4 8.0 7.5 6.6 6.7 6.8 6.6 4.0 5.4 2.6 0.3 -0.2 0.3 3.7 5.3 4.7 5.5 5.9 6.0 6.3 6.5 6.1 7.9
8.0 7.8 8.8 8.9 9.3 9.2 8.6 8.2 6.6 6.9 7.6 7.6 7.5 7.4 8.1 7.2 7.2 6.8 6.7 6.4 6.3 6.4 3.0 3.9 1.1 0.5 2.4 0.5 2.0 5.9 5.9 6.3 5.5 5.1 6.1 6.9 7.8 7.2
7.2 8.2 8.5 9.2 9.1 9.2 9.2 8.1 7.8 7.9 7.4 6.8 7.1 7.1 7.4 7.2 6.8 6.6 5.5 5.4 5.7 5.9 5.4 3.2 1.1 1.2 2.4 1.9 2.4 2.3 2.6 4.0 4.7 6.2 7.1 7.8 8.4 7.0
8.3 8.4 8.0 9.1 9.2 9.2 9.1 9.3 9.0 8.6 7.7 7.5 7.1 7.1 7.1 6.9 6.2 5.7 4.0 3.4 3.3 3.3 3.9 2.6 2.0 1.3 1.2 3.2 4.0 2.7 2.6 2.5 3.5 4.5 5.7 8.2 8.8 8.4
8.4 8.4 9.2 9.3 9.2 8.9 9.1 9.0 8.7 8.0 7.3 7.1 7.0 7.3 7.1 6.3 5.2 4.2 3.9 3.1 2.0 1.3 0.8 1.6 1.9 1.4 1.8 1.7 2.5 2.9 3.4 2.6 2.6 3.5 3.6 4.2 4.3 4.1
7.1 8.4 8.6 9.0 9.1 8.9 8.7 8.7 8.2 8.0 7.4 7.0 7.0 6.9 6.7 6.0 4.9 4.5 4.7 4.1 3.6 2.7 1.9 1.9 1.3 1.8 1.4 1.2 2.5 3.7 2.1 2.9 2.5 2.9 3.8 3.2 3.1 3.5
8.8 7.6 7.3 8.4 8.3 8.4 8.4 8.0 7.9 7.8 7.1 6.6 6.8 6.8 6.5 6.3 5.1 4.8 4.7 4.7 4.4 3.8 3.0 2.6 1.6 1.6 1.6 1.3 1.4 1.7 1.6 1.0 1.9 2.0 2.6 2.5 2.3 2.1
8.4 7.7 8.0 8.1 7.9 8.1 8.1 7.7 7.5 7.3 6.6 6.5 6.8 6.6 6.4 6.2 5.5 5.1 4.9 4.3 4.0 3.9 3.6 3.4 2.9 1.9 1.6 2.3 2.3 0.6 0.9 0.5 0.4 1.2 1.3 1.9 2.0 1.2
8.0 7.8 7.7 8.1 8.1 8.0 7.8 7.4 7.1 6.5 6.4 6.5 6.6 6.5 6.1 5.9 6.2 5.6 5.2 4.5 3.9 3.6 1.5 0.7 0.5 0.1 0.5 1.2 0.8 2.1 0.6 0.6 0.8 1.1 1.2 1.3 1.8 2.4
8.1 8.1 7.8 7.9 7.9 7.8 7.7 7.1 6.7 6.2 6.1 6.7 6.5 6.1 6.0 6.0 5.7 5.7 5.0 4.3 4.0 3.7 2.1 -0.5 -2.1 -4.5 -3.6 -1.7 -0.6 -0.5 2.5 1.3 1.7 1.8 1.7 2.0 2.6 4.9
7.9 8.3 8.0 8.2 7.7 7.6 7.3 6.7 6.2 5.9 6.5 6.7 6.3 6.0 5.8 5.9 5.7 5.3 5.2 5.3 4.5 3.0 1.9 0.0 -1.9 -1.6 -8.9 -5.7 0.2 0.7 0.8 3.5 2.5 1.1 1.5 2.4 4.0 4.5
7.9 8.1 8.0 7.9 7.0 6.9 6.5 6.0 5.7 5.5 5.6 6.5 5.9 5.8 5.6 5.4 5.1 4.9 4.7 3.7 2.9 2.3 0.2 -2.6 -3.7 -3.9 -3.6 -2.6 -1.7 -1.2 0.3 1.4 2.8 4.7 4.2 4.8 3.4 3.2
8.0 7.8 7.8 7.2 6.2 6.3 5.7 5.4 5.2 5.2 6.1 5.9 5.6 5.2 4.6 4.1 3.9 3.2 2.9 2.5 1.6 -0.9 -1.6 -2.2 -4.1 -5.4 -4.1 -3.4 -3.3 -3.4 -2.0 -0.9 0.2 1.0 3.2 6.0 5.8 5.9
Wind_Speed
8 7 8 8 7 8 9 9 10 14 16 12 11 9 9 10 12 14 15 21 25 29 31 30 29 28 28 29 30 30 30 29 28 27 27 26 26 26
9 10 10 7 7 6 8 9 9 11 13 11 11 12 10 10 12 13 15 22 25 27 28 30 30 29 29 30 30 29 29 30 29 28 31 30 28 26
12 12 12 9 7 8 8 9 9 9 12 16 12 13 14 12 13 11 13 14 14 25 29 30 30 32 30 30 30 30 29 30 31 29 32 31 29 26
15 14 12 9 12 11 8 13 11 11 10 17 17 15 16 14 13 14 12 12 13 21 23 26 29 29 29 27 28 28 28 28 29 30 31 30 29 25
12 12 14 13 13 10 11 12 11 9 11 12 16 13 14 13 13 12 12 11 10 16 22 24 24 26 29 26 29 29 28 27 28 30 28 26 25 23
13 12 13 13 14 16 13 13 10 12 12 12 13 14 13 14 12 12 11 8 8 8 13 18 21 24 26 27 27 28 26 25 28 28 26 26 26 23
14 14 14 16 23 21 13 13 15 12 11 14 14 13 14 13 14 13 14 13 13 6 9 10 10 11 13 22 22 23 25 30 31 30 29 26 23 24
16 15 14 20 19 27 24 28 24 15 17 14 15 16 20 15 13 12 14 13 16 7 8 11 9 10 11 9 19 24 26 28 28 29 29 26 24 23
14 15 16 12 20 15 24 29 25 26 25 18 18 18 19 18 17 17 16 16 16 12 7 9 3 10 9 7 16 23 25 26 26 28 28 26 26 23
14 16 16 16 16 22 21 20 18 18 17 15 18 19 19 19 17 17 18 17 17 15 11 14 6 7 1 3 16 21 25 26 26 26 25 26 24 23
14 14 15 17 24 32 22 20 21 21 23 28 27 27 31 32 25 16 15 15 16 13 6 8 3 1 0 1 4 23 26 24 24 24 23 22 22 23
13 14 24 23 33 33 23 20 18 15 18 20 19 20 21 20 29 18 14 15 14 13 5 7 4 4 2 1 1 7 8 20 20 21 22 24 24 8
10 13 13 30 33 36 33 17 18 21 23 14 15 14 16 15 12 12 11 9 11 13 8 6 3 3 2 3 2 2 6 8 7 12 21 22 22 14
15 12 14 33 35 33 27 31 32 27 12 12 12 12 13 12 11 11 10 7 6 9 11 7 3 4 4 2 3 2 3 3 4 4 6 16 21 21
13 20 31 33 31 24 28 31 27 13 12 13 12 13 11 12 10 6 3 3 5 6 6 3 4 6 2 4 4 3 4 2 2 4 4 4 3 3
15 14 22 25 23 23 19 16 12 12 13 13 11 12 11 8 6 3 1 2 2 5 9 10 7 4 4 5 6 7 5 4 4 3 4 3 3 3
21 11 12 12 13 13 12 13 12 13 11 13 10 11 10 8 5 2 1 1 2 1 4 6 9 9 7 4 5 6 5 3 4 4 3 3 2 3
13 11 12 12 12 13 14 14 13 17 12 14 11 10 9 8 4 2 1 2 3 3 3 4 3 2 2 7 9 5 2 3 3 5 3 3 3 3
10 11 11 12 13 13 13 12 14 13 15 13 10 9 8 6 4 1 2 3 4 3 3 3 2 2 2 2 2 2 3 2 4 3 3 2 3 3
9 11 11 12 13 13 14 13 14 13 13 11 10 8 6 3 1 2 3 4 4 2 1 2 3 2 3 3 3 1 2 3 3 3 3 2 2 5
10 11 11 12 12 13 13 13 14 13 14 11 8 7 5 2 2 3 4 7 5 2 2 2 2 4 1 0 3 2 2 6 4 3 3 3 3 3
11 11 12 12 13 13 13 13 13 13 13 9 7 5 3 3 3 4 4 3 2 1 1 1 2 2 3 3 2 2 1 1 4 12 11 6 3 4
11 11 12 12 12 13 13 12 13 12 11 8 6 5 4 4 4 5 4 3 2 2 2 1 1 2 1 2 2 1 3 2 1 2 2 17 13 2
Wind_Direction
307 307 312 308 308 310 307 305 301 300 295 297 294 288 272 266 253 248 249 251 250 246 248 249 253 252 247 247 245 238 237 237 236 227 216 202 207 215
317 312 307 306 311 311 314 309 303 299 299 302 297 297 295 289 270 262 253 249 247 243 243 247 246 250 251 244 244 242 235 230 230 222 212 205 206 206
318 310 306 298 312 313 309 304 300 299 298 299 293 290 287 283 282 270 258 257 258 249 246 246 245 244 243 243 239 237 234 231 228 219 210 204 201 199
314 311 309 328 316 312 314 307 300 297 288 295 296 295 284 281 279 278 275 265 259 259 256 252 249 249 248 246 244 234 234 231 224 207 201 200 198 195
317 315 323 321 314 313 313 301 297 308 309 298 294 303 300 299 291 277 272 268 266 254 260 261 258 256 252 250 251 242 232 221 207 197 192 191 186 190
324 321 315 313 315 312 305 299 317 314 307 304 300 297 296 298 290 286 280 268 260 255 251 258 261 253 248 245 246 242 222 203 191 183 177 176 180 181
319 315 310 312 309 307 306 315 316 308 303 301 297 296 296 303 302 300 289 293 281 252 254 250 254 254 253 252 246 230 218 201 185 180 176 170 176 173
321 320 319 317 314 314 312 309 306 308 303 298 295 294 293 296 295 293 292 293 293 275 250 251 238 242 246 237 233 233 198 186 174 171 168 167 172 176
314 315 312 316 317 312 310 310 306 303 298 292 290 288 289 292 289 288 285 284 281 291 287 275 215 247 249 243 228 195 179 172 172 170 168 167 171 176
308 305 304 308 313 311 311 309 306 301 293 291 284 279 279 282 276 274 276 274 275 274 253 268 246 240 236 234 207 178 170 169 172 170 172 169 174 174
304 304 305 309 310 313 310 307 305 300 295 290 285 294 293 289 288 287 270 272 274 271 219 247 223 117 236 269 241 177 170 172 168 171 172 171 176 184
312 304 310 314 315 313 315 312 301 301 303 306 307 308 298 297 292 281 272 266 266 274 199 216 161 147 183 6 349 164 161 165 165 169 178 182 180 175
315 314 312 313 314 317 316 314 303 309 306 311 304 305 305 299 294 301 298 284 275 268 258 192 155 152 98 134 81 98 137 157 167 178 184 184 186 164
313 311 306 318 319 319 321 314 313 318 307 302 301 303 304 302 301 300 285 275 271 266 262 190 156 164 139 129 142 129 87 98 119 160 172 189 187 177
310 312 325 321 320 321 316 318 319 311 308 306 304 303 300 299 299 284 293 330 7 15 14 21 112 106 84 123 142 130 114 104 131 138 114 124 122 99
309 323 325 318 319 317 318 314 310 312 309 304 298 299 301 296 283 273 279 342 353 22 30 45 59 82 90 79 117 126 123 152 150 124 116 93 92 96
332 332 323 322 322 322 316 313 313 314 312 308 304 307 303 299 281 293 297 338 61 23 43 44 53 56 59 85 102 115 120 120 136 122 96 107 143 164
335 324 321 323 321 319 316 315 316 318 312 308 307 305 305 303 287 297 17 65 85 67 59 32 22 41 52 48 70 113 85 102 117 127 114 135 168 184
324 320 319 319 318 316 315 314 315 314 310 305 307 307 308 302 297 327 56 82 79 63 38 16 3 45 76 83 348 67 110 111 125 129 141 147 156 176
320 320 319 316 316 316 314 314 314 314 313 308 316 310 305 301 332 57 65 81 77 60 64 24 34 35 108 165 147 251 289 128 134 138 151 131 182 247
325 322 317 315 316 314 312 313 312 312 314 314 318 317 317 334 46 76 99 98 91 43 61 49 350 106 167 28 56 15 338 218 175 142 142 131 157 172
321 319 315 317 316 311 313 314 313 313 315 323 327 328 339 15 60 71 74 77 66 97 136 169 350 18 43 76 176 225 254 321 250 217 196 172 163 186
318 315 318 318 313 313 313 314 314 314 315 328 331 341 8 48 51 61 66 73 84 46 26 21 6 32 157 154 155 243 348 341 61 82 187 211 204 224